[[{"header":{"parameterUnit":"m.s-1","parameterCategory":1,"la1":30.2991,"la2":30.254,"lo1":-89.0895,"lo2":-89.0444,"dy":0.0017,"dx":0.0017,"nx":28,"ny":28,"refTime":"2024-04-14T21:00:00:Z","depth":0,"parameterNumber":2,"parameterNumberName":"U-component_of_WINDS"},"data":[0,0,0,0,0,0,0,0,0,0,0,0,0,0,0,0,0,0,0,0,0,0,0,0,0,0,0,0,0,0,0,0,0,0,0,0,0,0,0,0,0,0,0,0,0,0,0,0,0,0,0,0,0,0,0,0,0,0,-2.344,-2.3441,0,-2.3477,-2.3477,-2.3478,-2.345,-2.3448,-2.3447,-2.3446,-2.3482,-2.3485,-2.3487,0,0,0,0,0,0,0,0,0,0,0,0,0,-2.3345,-2.3347,-2.344,-2.3441,-2.3441,-2.3477,-2.3477,-2.3478,-2.345,-2.3448,-2.3447,-2.3445,-2.3482,-2.3484,-2.3487,0,0,0,0,0,0,0,0,0,0,0,0,0,-2.3385,-2.3348,-2.344,-2.3432,-2.3431,-2.3477,-2.3477,-2.3478,-2.345,-2.3448,-2.3446,-2.3445,-2.3481,-2.3484,-2.3487,-2.3543,0,0,-2.3497,-2.3498,0,0,0,0,0,0,0,0,-2.3383,-2.3388,-2.3432,-2.3432,-2.3432,-2.3457,-2.3457,-2.35,-2.3451,-2.3443,-2.3446,-2.3444,-2.3475,-2.3479,-2.349,-2.3545,-2.3546,-2.3497,-2.3499,-2.35,-2.3501,0,0,0,0,0,0,0,-2.338,-2.3386,-2.3455,-2.3433,-2.3433,-2.3426,-2.3429,-2.3465,-2.3469,-2.3443,-2.3441,-2.3446,-2.3475,-2.3487,-2.349,-2.3547,-2.3497,-2.35,-2.3502,-2.3503,-2.3649,-2.3651,0,0,0,0,0,0,-2.3378,-2.3384,-2.3454,-2.3456,-2.3402,-2.3429,-2.3433,-2.3451,-2.3468,-2.3469,-2.3448,-2.3445,-2.3482,-2.3487,-2.3492,-2.3557,-2.35,-2.3503,-2.3505,-2.3647,-2.3649,-2.3651,0,0,0,0,0,0,-2.3376,-2.3385,-2.3452,-2.342,-2.3428,-2.3432,-2.3453,-2.3452,-2.3464,-2.3472,-2.3472,-2.3459,-2.3481,-2.3487,-2.353,-2.3558,-2.3505,-2.3508,-2.3644,-2.3647,-2.365,-2.369,0,0,0,0,0,0,-2.3374,-2.3384,-2.3406,-2.342,-2.343,-2.3491,-2.3454,-2.3454,-2.347,-2.3466,-2.3483,-2.3483,-2.348,-2.3526,-2.3533,-2.3562,-2.351,-2.3642,-2.3646,-2.3649,-2.3686,-2.3694,-2.3701,0,0,0,0,0,-2.337,-2.3415,-2.3407,-2.3415,-2.3457,-2.3493,-2.3498,-2.3493,-2.3472,-2.3494,-2.3498,-2.3483,-2.3554,-2.353,-2.3539,-2.3568,-2.364,-2.3645,-2.3649,-2.3683,-2.3693,-2.3701,0,0,0,0,0,0,-2.3404,-2.3417,-2.3408,-2.3459,-2.3475,-2.3488,-2.3515,-2.3503,-2.3525,-2.3521,-2.3514,-2.3518,-2.3563,-2.357,-2.3544,-2.3623,-2.3594,-2.36,-2.3617,-2.3626,-2.3633,-2.363,-2.3513,0,0,0,0,0,-2.3417,-2.3445,-2.3455,-2.35,-2.3508,-2.351,-2.3526,-2.3521,-2.3537,-2.3543,-2.3551,-2.3567,-2.3592,-2.361,-2.3634,-2.3687,-2.369,-2.3712,-2.3719,-2.3725,-2.373,-2.3758,-2.3768,-2.3666,-2.3666,-2.3666,0,0,-2.3445,-2.3456,-2.3474,-2.3507,-2.3518,-2.3547,-2.3516,-2.3548,-2.3569,-2.3548,-2.3589,-2.3595,-2.3613,-2.3661,-2.3683,-2.3668,-2.3759,-2.3731,-2.3735,-2.3738,-2.3764,-2.3774,-2.3782,-2.3669,-2.3668,-2.3668,0,0,-2.351,-2.3522,-2.3559,-2.3572,-2.359,-2.3591,-2.36,-2.3614,-2.3618,-2.3659,-2.3643,-2.3668,-2.3713,-2.3726,-2.3738,-2.3808,-2.3794,-2.3816,-2.3854,-2.3881,-2.3889,-2.3896,-2.392,-2.3929,-2.3822,-2.3822,-2.3822,0,-2.3542,-2.3586,-2.358,-2.3613,-2.3628,-2.361,-2.3648,-2.366,-2.3685,-2.3695,-2.3679,-2.3734,-2.3745,-2.3795,-2.3812,-2.3823,-2.3833,-2.3814,-2.3888,-2.3896,-2.3902,-2.3925,-2.3934,-2.3824,-2.3824,-2.3824,-2.3823,0,-2.3624,-2.3654,-2.3683,-2.3707,-2.3725,-2.3761,-2.376,-2.3779,-2.3772,-2.3775,-2.3817,-2.3828,-2.3854,-2.3866,-2.386,-2.3916,-2.3906,-2.3889,-2.386,-2.3914,-2.3936,-2.3944,-2.3828,-2.3827,-2.3826,-2.3826,0,0,-2.3711,-2.3732,-2.3743,-2.3753,-2.3772,-2.3795,-2.3829,-2.3855,-2.3871,-2.3889,-2.3917,-2.3955,-2.3939,-2.3953,-2.3948,-2.3973,-2.4026,-2.3952,-2.3953,-2.3965,-2.4088,-2.41,-2.411,-2.4018,-2.4019,-2.4021,-2.4086,0,-2.3777,-2.3837,-2.3833,-2.3889,-2.3917,-2.39,-2.393,-2.3944,-2.3947,-2.3971,-2.3974,-2.4001,-2.3979,-2.3987,-2.401,-2.4015,-2.4051,-2.401,-2.4043,-2.4044,-2.4039,-2.4121,-2.4135,-2.4196,-2.4094,-2.4096,-2.4097,0,-2.3862,-2.3883,-2.3942,-2.3955,-2.3967,-2.3994,-2.4016,-2.4039,-2.4055,-2.4056,-2.4071,-2.4062,-2.4096,-2.4066,-2.4113,-2.4085,-2.4098,-2.4103,-2.4105,-2.4107,-2.4073,-2.4125,-2.4215,-2.4224,-2.411,-2.4109,-2.4108,0,-2.3919,-2.3962,-2.4002,-2.4012,-2.4029,-2.4048,-2.4056,-2.407,-2.4086,-2.4105,-2.4115,-2.4139,-2.4152,-2.417,-2.4167,-2.4146,-2.4214,-2.4184,-2.4215,-2.4215,-2.423,-2.4229,-2.4322,-2.424,-2.424,-2.4239,-2.4239,0,-2.3993,-2.4029,-2.4028,-2.4053,-2.4093,-2.4088,-2.4128,-2.4134,-2.4146,-2.4172,-2.4158,-2.4183,-2.4178,-2.4202,-2.42,-2.4238,-2.4244,-2.4245,-2.4244,-2.4246,-2.4246,-2.4254,-2.425,-2.4242,-2.4241,-2.4241,-2.424,0,-2.4063,-2.4064,-2.4107,-2.412,-2.4124,-2.4153,-2.4163,-2.4187,-2.4189,-2.4221,-2.4228,-2.4231,-2.4259,-2.4258,-2.4289,-2.4288,-2.4335,-2.4329,-2.4329,-2.4328,-2.4359,-2.4356,-2.446,-2.4473,-2.4383,-2.4384,-2.4384,0,-2.411,-2.4138,-2.4153,-2.4169,-2.4178,-2.4205,-2.422,-2.4216,-2.4233,-2.4252,-2.4273,-2.4299,-2.432,-2.4364,-2.4369,-2.4392,-2.4387,-2.4422,-2.439,-2.4391,-2.4386,-2.4385,-2.4387,-2.4428,-2.4429,-2.443,-2.443,0,-2.4193,-2.4192,-2.4215,-2.4238,-2.4257,-2.4275,-2.4291,-2.4305,-2.4302,-2.4322,-2.4349,-2.4365,-2.4397,-2.4423,-2.4445,-2.4453,-2.4441,-2.444,-2.4449,-2.4451,-2.4449,-2.445,-2.4346,-2.4438,-2.4437,-2.4437,-2.4436,-2.4436,-2.4253,-2.4276,-2.4291,-2.4316,-2.4328,-2.4344,-2.4366,-2.4371,-2.4394,-2.4419,-2.4415,-2.4446,-2.446,-2.4489,-2.4499,-2.4522,-2.451,-2.4522,-2.4525,-2.4528,-2.4531,-2.4446,-2.4527,-2.4526,-2.4526,-2.4526,-2.4526,0,-2.4334,-2.4342,-2.4366,-2.439,-2.441,-2.4397,-2.4414,-2.4432,-2.4459,-2.4474,-2.4494,-2.4526,-2.455,-2.4557,-2.4581,-2.4598,-2.4593,-2.4605,-2.4603,-2.4605,-2.4541,-2.4531,-2.4608,-2.4608,-2.4608,-2.4608,-2.4608,-2.4608,-2.4379,-2.4418,-2.4419,-2.4463,-2.4471,-2.4501,-2.4512,-2.4526,-2.4537,-2.4573,-2.4593,-2.4597,-2.4608,-2.4633,-2.4654,-2.4656,-2.4665,-2.4678,-2.4677,-2.4618,-2.4609,-2.4601,-2.4592,-2.468,-2.468,-2.4738,-2.4739,-2.4739]},{"header":{"parameterUnit":"m.s-1","parameterCategory":1,"la1":30.2991,"la2":30.254,"lo1":-89.0895,"lo2":-89.0444,"dy":0.0017,"dx":0.0017,"nx":28,"ny":28,"refTime":"2024-04-14T21:00:00:Z","depth":0,"parameterNumber":3,"parameterNumberName":"V-component_of_WINDS"},"data":[0,0,0,0,0,0,0,0,0,0,0,0,0,0,0,0,0,0,0,0,0,0,0,0,0,0,0,0,0,0,0,0,0,0,0,0,0,0,0,0,0,0,0,0,0,0,0,0,0,0,0,0,0,0,0,0,0,0,5.1771,5.1773,0,5.193,5.1931,5.1933,5.1938,5.1936,5.1934,5.1932,5.2091,5.2097,5.2103,0,0,0,0,0,0,0,0,0,0,0,0,0,5.1468,5.1474,5.1771,5.1773,5.1775,5.1929,5.1932,5.1934,5.1938,5.1936,5.1934,5.1931,5.2089,5.2096,5.2104,0,0,0,0,0,0,0,0,0,0,0,0,0,5.161,5.1475,5.177,5.1796,5.18,5.1929,5.1932,5.1934,5.1939,5.1936,5.1933,5.193,5.2087,5.2096,5.2105,5.2218,0,0,5.2132,5.2136,0,0,0,0,0,0,0,0,5.1602,5.1621,5.179,5.1794,5.1799,5.1911,5.1883,5.2029,5.1939,5.1886,5.1932,5.1929,5.2033,5.2047,5.2083,5.2226,5.2233,5.2133,5.2138,5.2142,5.2145,0,0,0,0,0,0,0,5.1592,5.1615,5.1833,5.1792,5.1798,5.1798,5.1815,5.1911,5.1974,5.189,5.1891,5.191,5.2035,5.2074,5.2086,5.2235,5.2133,5.2141,5.2146,5.215,5.2479,5.2483,0,0,0,0,0,0,5.1578,5.1606,5.1828,5.1838,5.1692,5.1806,5.1825,5.1878,5.1973,5.1984,5.1912,5.191,5.206,5.2076,5.2092,5.2232,5.2142,5.2151,5.2156,5.2476,5.248,5.2484,0,0,0,0,0,0,5.1572,5.1598,5.1822,5.1723,5.1751,5.1814,5.1874,5.1883,5.1921,5.1989,5.2,5.1941,5.2058,5.2079,5.2187,5.2237,5.2155,5.2163,5.2472,5.2477,5.2482,5.2512,0,0,0,0,0,0,5.1563,5.1595,5.164,5.1724,5.1757,5.1916,5.1877,5.1888,5.1937,5.1935,5.2019,5.203,5.2058,5.2174,5.2196,5.2248,5.217,5.2468,5.2475,5.248,5.2507,5.2518,5.2527,0,0,0,0,0,5.1552,5.1641,5.1642,5.1669,5.1814,5.1919,5.1937,5.1969,5.1941,5.1986,5.203,5.2027,5.2228,5.2185,5.221,5.2266,5.2465,5.2473,5.248,5.2503,5.2516,5.2526,0,0,0,0,0,0,5.1561,5.1653,5.1655,5.1774,5.1839,5.1919,5.1977,5.1981,5.2054,5.2049,5.2083,5.2102,5.2209,5.2248,5.2198,5.2381,5.2343,5.2356,5.2352,5.2365,5.2374,5.2363,5.2178,0,0,0,0,0,5.1577,5.1655,5.1731,5.1829,5.1861,5.1914,5.196,5.1979,5.2047,5.2074,5.2125,5.219,5.2268,5.2318,5.2394,5.2512,5.2531,5.2563,5.2573,5.2581,5.2592,5.2658,5.2673,5.2508,5.2508,5.2508,0,0,5.161,5.167,5.1717,5.1832,5.1884,5.1964,5.1936,5.2022,5.2081,5.2086,5.2192,5.2232,5.2306,5.242,5.2473,5.2456,5.2641,5.259,5.2596,5.2603,5.2667,5.2682,5.2696,5.2513,5.2513,5.2512,0,0,5.1712,5.1766,5.1853,5.1907,5.1986,5.2021,5.2042,5.2122,5.2149,5.2256,5.2262,5.2332,5.2465,5.2518,5.2563,5.2685,5.2685,5.2708,5.276,5.2824,5.2837,5.2849,5.2893,5.2908,5.2719,5.2719,5.2719,0,5.1744,5.1865,5.1898,5.1984,5.2034,5.2043,5.2132,5.2181,5.2281,5.2315,5.2295,5.2463,5.2514,5.2641,5.2671,5.2706,5.2731,5.2699,5.2833,5.2845,5.2856,5.2898,5.2915,5.2721,5.2721,5.2721,5.2721,0,5.19,5.1984,5.2045,5.2143,5.2199,5.2286,5.2331,5.2384,5.2398,5.2434,5.2542,5.2604,5.2692,5.2723,5.2737,5.2852,5.2839,5.2825,5.2788,5.2874,5.2914,5.293,5.2725,5.2724,5.2723,5.2723,0,0,5.2012,5.2127,5.2149,5.2194,5.2282,5.2348,5.2434,5.2522,5.2567,5.2635,5.2709,5.2822,5.281,5.286,5.2879,5.2936,5.3029,5.2915,5.2917,5.2934,5.316,5.3171,5.3189,5.303,5.3033,5.3035,5.3154,0,5.2124,5.2281,5.2312,5.2447,5.2525,5.2535,5.2611,5.2673,5.2709,5.2779,5.2818,5.2898,5.2876,5.2907,5.2963,5.3006,5.3075,5.2998,5.3098,5.3101,5.3079,5.321,5.3221,5.3331,5.317,5.3173,5.3175,0,5.2276,5.235,5.2493,5.2572,5.2605,5.2673,5.2756,5.2823,5.2894,5.2916,5.2972,5.2986,5.3076,5.3034,5.3158,5.3105,5.3147,5.3175,5.318,5.3191,5.3143,5.3225,5.3366,5.3383,5.32,5.3198,5.3196,0,5.2345,5.2479,5.2582,5.262,5.2714,5.2761,5.2803,5.287,5.2921,5.2993,5.3026,5.3107,5.3151,5.3213,5.3248,5.3214,5.3369,5.333,5.339,5.3389,5.3422,5.342,5.3573,5.3449,5.3449,5.3448,5.3448,0,5.2467,5.2554,5.2614,5.2678,5.2775,5.281,5.2906,5.2946,5.3006,5.3077,5.309,5.3156,5.3198,5.327,5.3297,5.3396,5.3415,5.3435,5.3442,5.3435,5.3432,5.3463,5.3457,5.3453,5.3452,5.3451,5.345,0,5.256,5.2604,5.2717,5.2797,5.2819,5.2888,5.2956,5.3017,5.3053,5.3143,5.3166,5.3222,5.3307,5.3348,5.3453,5.3471,5.3584,5.3584,5.356,5.3563,5.362,5.3614,5.3799,5.3825,5.3683,5.3684,5.3686,0,5.2635,5.2703,5.2791,5.284,5.2882,5.2961,5.3013,5.305,5.3103,5.3189,5.324,5.3326,5.3397,5.3532,5.3581,5.3662,5.3665,5.3724,5.3677,5.3668,5.3667,5.3663,5.367,5.3733,5.3734,5.3735,5.3736,0,5.2765,5.2783,5.2858,5.2941,5.3003,5.307,5.3136,5.3175,5.3222,5.3281,5.3369,5.3424,5.3532,5.3617,5.3701,5.3742,5.3748,5.3751,5.3769,5.3763,5.3746,5.3756,5.3584,5.3746,5.3745,5.3745,5.3744,5.3744,5.2852,5.2913,5.2984,5.3067,5.312,5.3182,5.3244,5.3288,5.3362,5.3454,5.347,5.3564,5.3632,5.3746,5.379,5.3863,5.3849,5.3875,5.3882,5.3888,5.3891,5.3734,5.3878,5.3878,5.3878,5.3877,5.3877,0,5.2983,5.3029,5.3105,5.3197,5.3263,5.3262,5.3335,5.3389,5.3472,5.3535,5.3605,5.3706,5.3789,5.3845,5.3929,5.3976,5.3981,5.3997,5.3994,5.4004,5.3898,5.3875,5.3992,5.3992,5.3992,5.3992,5.3992,5.3992,5.3058,5.3161,5.3188,5.3317,5.3362,5.3455,5.3496,5.3553,5.3604,5.3716,5.3786,5.3822,5.3883,5.3971,5.4047,5.4061,5.4091,5.4108,5.4122,5.4023,5.4011,5.3999,5.3977,5.4114,5.4114,5.4221,5.4222,5.4223]}]]